[[{"header":{"parameterUnit":"m.s-1","parameterCategory":1,"la1":30.2991,"la2":30.254,"lo1":-89.0895,"lo2":-89.0444,"dy":0.0017,"dx":0.0017,"nx":28,"ny":28,"refTime":"2025-04-14T21:00:00:Z","depth":0,"parameterNumber":2,"parameterNumberName":"U-component_of_WINDS"},"data":[0,0,0,0,0,0,0,0,0,0,0,0,0,0,0,0,0,0,0,0,0,0,0,0,0,0,0,0,0,0,0,0,0,0,0,0,0,0,0,0,0,0,0,0,0,0,0,0,0,0,0,0,0,0,0,0,0,0,-2.7082,-2.7082,0,-2.7145,-2.7145,-2.7146,-2.7013,-2.7009,-2.7004,-2.7,-2.707,-2.7075,-2.7081,0,0,0,0,0,0,0,0,0,0,0,0,0,-2.685,-2.6855,-2.7082,-2.7082,-2.7083,-2.7144,-2.7145,-2.7146,-2.7014,-2.7008,-2.7003,-2.6998,-2.7068,-2.7075,-2.7082,0,0,0,0,0,0,0,0,0,0,0,0,0,-2.6936,-2.6857,-2.7082,-2.7024,-2.702,-2.7144,-2.7145,-2.7146,-2.7015,-2.7008,-2.7002,-2.6996,-2.7065,-2.7074,-2.7083,-2.7267,0,0,-2.711,-2.7113,0,0,0,0,0,0,0,0,-2.6931,-2.6945,-2.7032,-2.7029,-2.7024,-2.7064,-2.7089,-2.7187,-2.7016,-2.7017,-2.7,-2.6993,-2.7073,-2.7081,-2.7107,-2.727,-2.7273,-2.711,-2.7116,-2.712,-2.7122,0,0,0,0,0,0,0,-2.6926,-2.6941,-2.7107,-2.7033,-2.7028,-2.6997,-2.7002,-2.7107,-2.7081,-2.7016,-2.7007,-2.7016,-2.707,-2.7099,-2.7108,-2.7274,-2.711,-2.7118,-2.7123,-2.7127,-2.7592,-2.7598,0,0,0,0,0,0,-2.6926,-2.6937,-2.7105,-2.7108,-2.696,-2.7006,-2.7012,-2.7058,-2.7079,-2.7076,-2.7021,-2.7009,-2.7087,-2.7098,-2.711,-2.7328,-2.7119,-2.7128,-2.7133,-2.7585,-2.7593,-2.7601,0,0,0,0,0,0,-2.6922,-2.6942,-2.7102,-2.702,-2.7038,-2.7017,-2.707,-2.7063,-2.7092,-2.7083,-2.7078,-2.7056,-2.7083,-2.7098,-2.7229,-2.7329,-2.7132,-2.714,-2.7576,-2.7587,-2.7597,-2.7766,0,0,0,0,0,0,-2.6916,-2.6942,-2.7011,-2.7023,-2.7043,-2.722,-2.7076,-2.7068,-2.7107,-2.7092,-2.7114,-2.7112,-2.7079,-2.7216,-2.7237,-2.7337,-2.7147,-2.7567,-2.7581,-2.7594,-2.7752,-2.7781,-2.7807,0,0,0,0,0,-2.6908,-2.7057,-2.7015,-2.7036,-2.7129,-2.7226,-2.7237,-2.7195,-2.7115,-2.7185,-2.7179,-2.7111,-2.7313,-2.7231,-2.7254,-2.7358,-2.7561,-2.7577,-2.7593,-2.774,-2.7776,-2.7806,0,0,0,0,0,0,-2.7061,-2.7058,-2.7011,-2.7169,-2.7198,-2.7203,-2.729,-2.7234,-2.7288,-2.7273,-2.7218,-2.7225,-2.7367,-2.7374,-2.7282,-2.7537,-2.7424,-2.7445,-2.7528,-2.7562,-2.7589,-2.7586,-2.7154,0,0,0,0,0,-2.7112,-2.7189,-2.7183,-2.7323,-2.7339,-2.7313,-2.7353,-2.7317,-2.7346,-2.7359,-2.7362,-2.7395,-2.7465,-2.7513,-2.7578,-2.775,-2.7754,-2.7833,-2.7861,-2.7883,-2.7904,-2.7997,-2.8032,-2.7653,-2.7653,-2.7652,0,0,-2.722,-2.7228,-2.7281,-2.7353,-2.7372,-2.7455,-2.7324,-2.7417,-2.7479,-2.7373,-2.7498,-2.7501,-2.7533,-2.7686,-2.7754,-2.7697,-2.8008,-2.7903,-2.7922,-2.793,-2.8017,-2.8053,-2.8085,-2.7664,-2.7662,-2.766,0,0,-2.746,-2.7473,-2.7591,-2.7612,-2.7641,-2.7621,-2.7649,-2.7662,-2.766,-2.7783,-2.7706,-2.7778,-2.7901,-2.7927,-2.7956,-2.8203,-2.8143,-2.8226,-2.8371,-2.8462,-2.8492,-2.8519,-2.8609,-2.8642,-2.8245,-2.8245,-2.8246,0,-2.7592,-2.7713,-2.7659,-2.7758,-2.7793,-2.7698,-2.7818,-2.784,-2.789,-2.7917,-2.7851,-2.8003,-2.8017,-2.8176,-2.8236,-2.8262,-2.8294,-2.8225,-2.8492,-2.8518,-2.8541,-2.8627,-2.8661,-2.8255,-2.8254,-2.8253,-2.8252,0,-2.7874,-2.7958,-2.805,-2.8099,-2.8143,-2.8252,-2.8216,-2.8268,-2.8227,-2.8215,-2.8342,-2.8355,-2.8421,-2.8455,-2.8417,-2.8608,-2.8572,-2.85,-2.8386,-2.8589,-2.8668,-2.8701,-2.827,-2.8266,-2.8263,-2.8261,0,0,-2.8217,-2.8232,-2.8267,-2.8288,-2.8311,-2.8376,-2.848,-2.8542,-2.8589,-2.8624,-2.8712,-2.8816,-2.8749,-2.8783,-2.8746,-2.8826,-2.9023,-2.8743,-2.8743,-2.8798,-2.9237,-2.9294,-2.9332,-2.8981,-2.8987,-2.8991,-2.9235,0,-2.8457,-2.8635,-2.8589,-2.8767,-2.8845,-2.8754,-2.8845,-2.887,-2.8861,-2.8926,-2.8915,-2.8991,-2.8896,-2.8915,-2.8989,-2.8983,-2.9111,-2.8964,-2.9064,-2.9069,-2.9063,-2.9374,-2.9434,-2.9664,-2.9265,-2.9271,-2.9274,0,-2.8762,-2.8808,-2.8994,-2.9003,-2.9034,-2.9117,-2.917,-2.9233,-2.9259,-2.9246,-2.9282,-2.9229,-2.9333,-2.9214,-2.9357,-2.9259,-2.9296,-2.9299,-2.9306,-2.9318,-2.9187,-2.9397,-2.9736,-2.9772,-2.9322,-2.9319,-2.9315,0,-2.8997,-2.9105,-2.923,-2.925,-2.9264,-2.9325,-2.9333,-2.9352,-2.9393,-2.9439,-2.9464,-2.9523,-2.9556,-2.9602,-2.9567,-2.9483,-2.9716,-2.9594,-2.9711,-2.9712,-2.9768,-2.9766,-3.0122,-2.9786,-2.9785,-2.9785,-2.9784,0,-2.9273,-2.9391,-2.9336,-2.9414,-2.9543,-2.9488,-2.9618,-2.9616,-2.9633,-2.971,-2.9634,-2.9707,-2.9653,-2.9723,-2.9695,-2.9819,-2.9833,-2.9827,-2.982,-2.9837,-2.9838,-2.9864,-2.9849,-2.9794,-2.9792,-2.979,-2.9789,0,-2.956,-2.9527,-2.9658,-2.9659,-2.9662,-2.9758,-2.9759,-2.9831,-2.9814,-2.9912,-2.9931,-2.9906,-2.9983,-2.995,-3.0032,-3.0013,-3.0173,-3.0142,-3.0165,-3.0158,-3.0278,-3.0268,-3.0666,-3.0716,-3.0345,-3.0348,-3.0351,0,-2.974,-2.9828,-2.9838,-2.9882,-2.9896,-2.9969,-3.0009,-2.9957,-3.0002,-3.0037,-3.0106,-3.0175,-3.0229,-3.0356,-3.0346,-3.0408,-3.038,-3.0515,-3.039,-3.0404,-3.0386,-3.0383,-3.0393,-3.0542,-3.0546,-3.055,-3.0553,0,-3.0064,-3.0043,-3.0102,-3.0157,-3.0206,-3.0246,-3.028,-3.0322,-3.0271,-3.0326,-3.0402,-3.0444,-3.0526,-3.0597,-3.0651,-3.0661,-3.0601,-3.0591,-3.0622,-3.0643,-3.0654,-3.0652,-3.0237,-3.0584,-3.0581,-3.0578,-3.0577,-3.0576,-3.0305,-3.0379,-3.0397,-3.0466,-3.0486,-3.0519,-3.0587,-3.0577,-3.0639,-3.0702,-3.0667,-3.0757,-3.0779,-3.0845,-3.0863,-3.0934,-3.0881,-3.0925,-3.0937,-3.095,-3.0967,-3.0639,-3.0943,-3.0942,-3.0941,-3.094,-3.094,0,-3.0628,-3.0634,-3.0697,-3.0746,-3.0801,-3.0734,-3.0768,-3.0818,-3.0898,-3.0923,-3.0976,-3.1065,-3.1133,-3.1126,-3.1189,-3.1246,-3.122,-3.1265,-3.1262,-3.1266,-3.1009,-3.0978,-3.1285,-3.1285,-3.1285,-3.1285,-3.1285,-3.1285,-3.0802,-3.0925,-3.0906,-3.1037,-3.1042,-3.1129,-3.1154,-3.1185,-3.1204,-3.1306,-3.1361,-3.1355,-3.1368,-3.143,-3.1489,-3.1486,-3.1514,-3.157,-3.1557,-3.1318,-3.1284,-3.1251,-3.1222,-3.1576,-3.1576,-3.1808,-3.181,-3.1812]},{"header":{"parameterUnit":"m.s-1","parameterCategory":1,"la1":30.2991,"la2":30.254,"lo1":-89.0895,"lo2":-89.0444,"dy":0.0017,"dx":0.0017,"nx":28,"ny":28,"refTime":"2025-04-14T21:00:00:Z","depth":0,"parameterNumber":3,"parameterNumberName":"V-component_of_WINDS"},"data":[0,0,0,0,0,0,0,0,0,0,0,0,0,0,0,0,0,0,0,0,0,0,0,0,0,0,0,0,0,0,0,0,0,0,0,0,0,0,0,0,0,0,0,0,0,0,0,0,0,0,0,0,0,0,0,0,0,0,-4.4342,-4.4343,0,-4.443,-4.4431,-4.4432,-4.4362,-4.4359,-4.4356,-4.4353,-4.4439,-4.4444,-4.4449,0,0,0,0,0,0,0,0,0,0,0,0,0,-4.4109,-4.4114,-4.4342,-4.4343,-4.4344,-4.443,-4.4431,-4.4432,-4.4363,-4.4359,-4.4355,-4.4352,-4.4437,-4.4443,-4.4449,0,0,0,0,0,0,0,0,0,0,0,0,0,-4.4205,-4.4115,-4.4342,-4.432,-4.4319,-4.4429,-4.4431,-4.4432,-4.4363,-4.4359,-4.4354,-4.435,-4.4435,-4.4443,-4.445,-4.4586,0,0,-4.4473,-4.4477,0,0,0,0,0,0,0,0,-4.42,-4.4213,-4.4322,-4.4322,-4.4321,-4.438,-4.438,-4.4484,-4.4364,-4.4346,-4.4353,-4.4348,-4.4423,-4.4431,-4.4457,-4.459,-4.4593,-4.4474,-4.4479,-4.4482,-4.4484,0,0,0,0,0,0,0,-4.4193,-4.4209,-4.4376,-4.4324,-4.4323,-4.4304,-4.4313,-4.4399,-4.4408,-4.4348,-4.4343,-4.4354,-4.4422,-4.445,-4.4459,-4.4595,-4.4474,-4.448,-4.4485,-4.4488,-4.4841,-4.4846,0,0,0,0,0,0,-4.4189,-4.4204,-4.4374,-4.4379,-4.4248,-4.4312,-4.4322,-4.4366,-4.4407,-4.4409,-4.4358,-4.4351,-4.4439,-4.445,-4.4461,-4.4622,-4.4482,-4.4489,-4.4493,-4.4836,-4.4842,-4.4847,0,0,0,0,0,0,-4.4184,-4.4205,-4.437,-4.429,-4.431,-4.4321,-4.4371,-4.437,-4.4398,-4.4415,-4.4416,-4.4386,-4.4436,-4.4451,-4.4555,-4.4624,-4.4492,-4.4499,-4.4831,-4.4838,-4.4845,-4.4945,0,0,0,0,0,0,-4.4178,-4.4204,-4.4257,-4.4292,-4.4315,-4.4464,-4.4375,-4.4375,-4.4412,-4.4403,-4.4441,-4.4443,-4.4434,-4.4544,-4.4563,-4.4632,-4.4505,-4.4824,-4.4834,-4.4843,-4.4936,-4.4955,-4.4972,0,0,0,0,0,-4.417,-4.4281,-4.426,-4.428,-4.4381,-4.4469,-4.4481,-4.4469,-4.4418,-4.447,-4.4481,-4.4442,-4.4614,-4.4556,-4.4576,-4.4649,-4.482,-4.4831,-4.4842,-4.4928,-4.4951,-4.4971,0,0,0,0,0,0,-4.4251,-4.4285,-4.4262,-4.4388,-4.4426,-4.4457,-4.4522,-4.4495,-4.4547,-4.4537,-4.4518,-4.4527,-4.4637,-4.4653,-4.4588,-4.4781,-4.4708,-4.4724,-4.4767,-4.4789,-4.4807,-4.4801,-4.4511,0,0,0,0,0,-4.4284,-4.4354,-4.4379,-4.4487,-4.4508,-4.4512,-4.455,-4.4537,-4.4575,-4.4591,-4.4609,-4.4646,-4.4708,-4.475,-4.4808,-4.4938,-4.4944,-4.4998,-4.5015,-4.503,-4.5043,-4.5112,-4.5136,-4.4883,-4.4883,-4.4883,0,0,-4.4352,-4.4379,-4.4424,-4.4504,-4.4532,-4.4603,-4.4526,-4.4605,-4.4657,-4.4602,-4.4702,-4.4717,-4.4757,-4.4875,-4.4928,-4.4892,-4.5115,-4.5044,-4.5055,-4.5061,-4.5126,-4.515,-4.5171,-4.4891,-4.4889,-4.4888,0,0,-4.4512,-4.454,-4.4634,-4.4664,-4.4708,-4.471,-4.4732,-4.4767,-4.4775,-4.4876,-4.4836,-4.4897,-4.5005,-4.5035,-4.5064,-4.5236,-4.5202,-4.5255,-4.5348,-4.5415,-4.5435,-4.5453,-4.5513,-4.5535,-4.5268,-4.5268,-4.5269,0,-4.4591,-4.4698,-4.4685,-4.4767,-4.4802,-4.4758,-4.4851,-4.488,-4.494,-4.4965,-4.4924,-4.5058,-4.5082,-4.5206,-4.5248,-4.5273,-4.5297,-4.525,-4.5434,-4.5451,-4.5467,-4.5525,-4.5548,-4.5275,-4.5274,-4.5273,-4.5273,0,-4.4792,-4.4867,-4.4937,-4.4998,-4.5041,-4.5129,-4.5127,-4.5172,-4.5155,-4.5161,-4.5263,-4.5291,-4.5353,-4.5381,-4.5366,-4.5503,-4.5479,-4.5437,-4.5363,-4.5498,-4.5552,-4.5574,-4.5283,-4.5281,-4.5279,-4.5278,0,0,-4.5007,-4.5059,-4.5085,-4.5112,-4.5157,-4.5214,-4.5298,-4.536,-4.5399,-4.5442,-4.5511,-4.5603,-4.5564,-4.5598,-4.5585,-4.5644,-4.5777,-4.5594,-4.5594,-4.5626,-4.5929,-4.5961,-4.5987,-4.5755,-4.5759,-4.5762,-4.5925,0,-4.5169,-4.5318,-4.5308,-4.5447,-4.5515,-4.5473,-4.5546,-4.5581,-4.5589,-4.5646,-4.5653,-4.5719,-4.5662,-4.5682,-4.5739,-4.5749,-4.5837,-4.5737,-4.5818,-4.5821,-4.5809,-4.6015,-4.6049,-4.6201,-4.5946,-4.595,-4.5952,0,-4.5378,-4.543,-4.5577,-4.5611,-4.5639,-4.5706,-4.5762,-4.5818,-4.5855,-4.5856,-4.5894,-4.5871,-4.5954,-4.5879,-4.5993,-4.5925,-4.5957,-4.5966,-4.5972,-4.5979,-4.5895,-4.6027,-4.625,-4.6273,-4.5985,-4.5983,-4.598,0,-4.552,-4.5625,-4.5727,-4.5751,-4.5794,-4.5841,-4.5861,-4.5894,-4.5932,-4.5981,-4.6005,-4.6062,-4.6093,-4.6137,-4.6129,-4.6075,-4.6245,-4.6169,-4.6247,-4.6247,-4.6285,-4.6282,-4.6516,-4.6306,-4.6306,-4.6305,-4.6305,0,-4.5702,-4.5793,-4.5791,-4.5853,-4.5954,-4.594,-4.6039,-4.6053,-4.6083,-4.6146,-4.6113,-4.6172,-4.6159,-4.6217,-4.6211,-4.6306,-4.632,-4.6322,-4.632,-4.6326,-4.6325,-4.6346,-4.6335,-4.6311,-4.631,-4.6309,-4.6308,0,-4.5877,-4.5879,-4.5987,-4.6019,-4.6029,-4.6101,-4.6127,-4.6185,-4.619,-4.627,-4.6288,-4.6295,-4.6362,-4.6359,-4.6434,-4.643,-4.6547,-4.6532,-4.6535,-4.6531,-4.6609,-4.6602,-4.6865,-4.6898,-4.6667,-4.6669,-4.6671,0,-4.5993,-4.6062,-4.6102,-4.6143,-4.6166,-4.6231,-4.627,-4.6259,-4.63,-4.6349,-4.64,-4.6465,-4.6516,-4.6625,-4.6635,-4.6693,-4.6679,-4.6767,-4.6687,-4.669,-4.6679,-4.6675,-4.6682,-4.6782,-4.6785,-4.6787,-4.6789,0,-4.6199,-4.6196,-4.6255,-4.6314,-4.6361,-4.6407,-4.6448,-4.6483,-4.6475,-4.6524,-4.6593,-4.6632,-4.671,-4.6774,-4.6829,-4.6847,-4.6817,-4.6814,-4.6835,-4.6841,-4.684,-4.6841,-4.6577,-4.6808,-4.6806,-4.6804,-4.6803,-4.6803,-4.6347,-4.6407,-4.6444,-4.651,-4.654,-4.658,-4.6636,-4.6648,-4.6706,-4.6769,-4.6758,-4.6835,-4.687,-4.6941,-4.6964,-4.7023,-4.6991,-4.7022,-4.703,-4.7037,-4.7046,-4.6831,-4.7033,-4.7032,-4.7032,-4.7031,-4.7031,0,-4.6551,-4.6573,-4.6634,-4.6693,-4.6745,-4.6713,-4.6757,-4.6802,-4.6871,-4.6906,-4.6957,-4.7036,-4.7098,-4.7113,-4.7172,-4.7216,-4.7204,-4.7232,-4.7228,-4.7233,-4.7071,-4.7047,-4.7241,-4.7241,-4.7241,-4.7241,-4.7241,-4.7241,-4.6663,-4.6762,-4.6764,-4.6877,-4.6897,-4.6974,-4.7002,-4.7038,-4.7066,-4.7156,-4.7208,-4.7218,-4.7245,-4.7305,-4.736,-4.7363,-4.7386,-4.742,-4.7417,-4.7265,-4.7244,-4.7224,-4.7201,-4.7425,-4.7425,-4.7573,-4.7575,-4.7576]}]]